User: anonymous   Login
Location: UBC Liquid-Mirror Observatory
(49.2876°N, 122.5728°W)
Time: 22:08:53
(UTC-08:00)
Language:

Cosmos 1743 Rocket - Orbit

View from above orbital plane
View from above orbital plane
View from above satellite
View from above satellite

Ground track
Ground track

The orbit data is extracted from the following two-line orbital elements,

1 16720U 86034B   17323.54125615 +.00000099 +00000-0 +91646-5 0  9991
2 16720 082.5536 096.6649 0019027 312.0135 119.1337 14.83313296681203
Epoch (UTC): 19 November 2017 12:59:24
Eccentricity: 0.0019027
inclination: 82.5536°
perigee height: 605 km
apogee height: 632 km
right ascension of ascending node: 96.6649°
argument of perigee: 312.0135°
revolutions per day: 14.83313296
mean anomaly at epoch: 119.1337°
orbit number at epoch: 68120

The dashed part of the orbit path shows where the satellite is in the earth's shadow,  

DLR